History for KNYNEWYO141

Midtown, New York, NY — Current Conditions
Daily Summary for June 28, 2017
  Current: High: Low: Average:
Temperature: 78.1°F 79.2°F 77.7°F 78.4°F
Dew Point: 52.2°F 53.2°F 51.4°F 52.3°F
Humidity: 40% 40% 39% 39%
Wind Speed: - 0.0mph - 0.0mph
Wind Gust: - 0.0mph - -
Wind: North - - North
Pressure: 30.04in 30.04in 29.96in -
Precipitation: 0.00in      
Statistics for the rest of the month
    High: Low: Average:
Temperature:   86.7°F 69.8°F 78.3°F
Dew Point:   67.8°F 44.2°F 53.3°F
Humidity:   60.0% 29.0% 41.9%
Wind Speed:   0.0mph from the North - 0.0mph
Wind Gust:   0.0mph from the North - -
Wind:   - - North
Pressure:   30.09in 29.57in -
Precipitation:   0.00in    
KNYNEWYO141 Weather Graph
Tabular Data for June 28, 2017
Time Temp. Dew Point Pressure Wind Gust Humidity Rainfall
00:16 79.0°F 53.0°F 29.96in - 40% -
00:19 79.0°F 53.0°F 29.96in - 40% -
00:29 79.0°F 53.0°F 29.96in - 40% -
00:39 79.0°F 53.0°F 29.96in - 40% -
00:49 79.2°F 53.2°F 29.97in - 40% -
01:09 79.2°F 53.2°F 29.96in - 40% -
01:19 79.2°F 52.5°F 29.96in - 39% -
01:29 79.0°F 53.0°F 29.97in - 40% -
01:39 79.0°F 53.0°F 29.97in - 40% -
01:49 79.0°F 52.3°F 29.97in - 39% -
02:09 79.0°F 52.3°F 29.97in - 39% -
02:20 79.0°F 52.3°F 29.97in - 39% -
02:30 78.8°F 52.2°F 29.98in - 39% -
02:40 78.8°F 52.2°F 29.98in - 39% -
02:50 78.8°F 52.2°F 29.99in - 39% -
03:00 78.8°F 52.2°F 29.99in - 39% -
03:20 78.4°F 51.9°F 29.99in - 39% -
03:30 78.4°F 51.9°F 29.99in - 39% -
03:40 78.3°F 51.7°F 29.99in - 39% -
04:00 78.1°F 51.5°F 30.00in - 39% -
04:10 77.9°F 51.4°F 30.00in - 39% -
04:20 77.9°F 51.4°F 30.00in - 39% -
04:30 77.9°F 51.4°F 30.01in - 39% -
04:40 77.7°F 51.9°F 30.01in - 40% -
05:10 77.7°F 51.9°F 30.02in - 40% -
05:20 77.7°F 51.9°F 30.02in - 40% -
05:40 77.7°F 51.9°F 30.02in - 40% -
06:10 77.9°F 52.0°F 30.04in - 40% -
06:20 78.1°F 52.2°F 30.04in - 40% -
Comma Delimited File
Powered by Weather Underground, Inc.